Regional Weather Roundup
Issued by NWS

Home | Current Version | Previous Version | Graphics & Text | Print | Product List | Glossary On
Versions: 1 2 3 4 5 6 7 8 9 10 11 12 13 14 15 16 17 18 19 20 21 22 23 24 25 26 27 28 29 30 31 32 33 34 35 36 37 38 39 40 41 42 43 44 45 46 47 48 49 50
000
ASUS43 KMKX 251311
RWRWI

WISCONSIN REGIONAL WEATHER ROUNDUP
NATIONAL WEATHER SERVICE MILWAUKEE/SULLIVAN WI
800 AM CDT MON SEP 25 2017

NOTE: "FAIR" INDICATES FEW OR NO CLOUDS BELOW 12,000 FEET WITH NO
SIGNIFICANT WEATHER AND/OR OBSTRUCTIONS TO VISIBILITY.

WIZ001-002-006>008-014>016-023>028-251400-
NORTHWEST WISCONSIN

CITY           SKY/WX    TMP DP  RH WIND       PRES   REMARKS
SUPERIOR ARPT  CLOUDY    57  55  92 W6        29.99R
ASHLAND        LGT RAIN  64  62  93 W5        29.97R
HAYWARD        LGT RAIN  66  64  93 W7        29.98R FOG
SIREN          LGT RAIN  59  58  97 CALM      29.98F
CUMBERLAND     CLOUDY    63  63 100 N7        29.98S
RICE LAKE      MOCLDY    65  64  96 CALM      29.99S
CHETEK         CLOUDY    68  67  97 CALM      29.98R
LADYSMITH      CLOUDY    64  63  94 CALM      30.00R FOG
EAU CLAIRE     MOSUNNY   64  63  96 CALM      29.96R FOG
MENOMONIE      MOCLDY    68  66  94 CALM      29.98R
NEW RICHMOND   CLOUDY    62  62  99 NW14      29.99R
OSCEOLA        CLOUDY    60  60 100 NW5       30.02R
$$

WIZ003>005-009-010-017-018-251400-
NORTH CENTRAL WISCONSIN

CITY           SKY/WX    TMP DP  RH WIND       PRES   REMARKS
MANITOWISH WTR NOT AVBL
ARBOR VITAE    SUNNY     64  62  91 CALM      30.00R
WOODRUFF       SUNNY     64  62  91 CALM      30.00R
RHINELANDER    SUNNY     65  62  90 CALM      30.01R
EAGLE RIVER    SUNNY     63  62  95 SW3       30.00R
LAND O LAKES   SUNNY     64  60  87 CALM      30.01R
PHILLIPS       CLOUDY    64  64  97 CALM      29.98S
TOMAHAWK       SUNNY     60  59  97 CALM      30.01R
MEDFORD        SUNNY     61  60  95 CALM      29.99S FOG
MERRILL        SUNNY     57  57 100 CALM      30.00R
$$

WIZ029-030-035-036-043>047-251400-
CENTRAL WISCONSIN

CITY           SKY/WX    TMP DP  RH WIND       PRES   REMARKS
WAUSAU         SUNNY     64  61  90 CALM      29.98R
MOSINEE        PTSUNNY   63  63 100 CALM      30.01R
MARSHFIELD     SUNNY     65  61  87 CALM      29.99R
STEVENS POINT  SUNNY     61  61 100 CALM      30.00S
WAUPACA        SUNNY     65  65  97 CALM      30.00R FOG
WAUTOMA        SUNNY     62  60  93 CALM      30.00R
WISC RAPIDS    SUNNY     69  62  78 CALM      29.99S
CAMP DOUGLAS   MOSUNNY   63  63 100 CALM      29.97S
$$

WIZ011>013-019>022-031-037>040-048>050-251400-
NORTHEAST WISCONSIN

CITY           SKY/WX    TMP DP  RH WIND       PRES   REMARKS
ANTIGO         PTSUNNY   65  62  90 CALM      30.02S
SHAWANO        PTSUNNY   67  63  85 CALM      30.00R
OCONTO         PTSUNNY   65  62  90 CALM      29.99S
STURGEON BAY   MOSUNNY   70  62  76 S8        30.00S
GREEN BAY      MOSUNNY   66  63  90 CALM      29.99S
MANITOWOC      MOSUNNY   62  61  96 CALM      30.01S FOG
APPLETON       PTSUNNY   66  57  72 CALM      29.99R
CLINTONVILLE   PTSUNNY   64  63  94 NW3       30.00R
OSHKOSH        PTSUNNY   71  63  75 S8        29.99S
$$

WIZ032>034-041-042-053>061-251400-
SOUTHWEST WISCONSIN

CITY           SKY/WX    TMP DP  RH WIND       PRES   REMARKS
LA CROSSE      MOSUNNY   70  64  81 SE5       29.95R
SPARTA         MOSUNNY   61  59  94 CALM      29.97S
VIROQUA        MOSUNNY   65  64  97 CALM      29.98S
BOSCOBEL       SUNNY     64  62  93 CALM      29.98R FOG
PRAIRIE DU CHI SUNNY     65  62  90 CALM      29.97S
PLATTEVILLE    SUNNY     67  63  86 SE6       30.00S
$$

WIZ056-057-062-063-064-067-068-251400-
SOUTH CENTRAL WISCONSIN

CITY           SKY/WX    TMP DP  RH WIND       PRES   REMARKS
REEDSBURG      SUNNY     66  64  91 CALM      29.98S
BARABOO/DELLS  SUNNY     68  60  75 S3        29.99S
LONE ROCK      SUNNY     63  62  97 CALM      29.98S FOG
MINERAL POINT  SUNNY     68  63  83 SE6       30.00S
MADISON        MOSUNNY   68  62  81 S5        29.99S
MIDDLETON      SUNNY     71  61  71 CALM      30.00S
WATERTOWN      SUNNY     65  62  89 CALM      30.01R
MONROE         SUNNY     66  59  77 S6        30.01R
JANESVILLE     MOSUNNY   66  66 100 CALM      30.00R
$$

WIZ051-052-058>065-066-070>072-251400-
SOUTHEAST WISCONSIN

CITY           SKY/WX    TMP DP  RH WIND       PRES   REMARKS
MILWAUKEE      MOSUNNY   73  61  65 SW8       30.01R
WAUKESHA       MOSUNNY   66  57  72 CALM      30.02S
MILWAUKEE/TIMM MOSUNNY   64  57  77 CALM      30.02S
RACINE         SUNNY     71  63  75 S3        30.03R
BURLINGTON     SUNNY     64  63  99 CALM      30.01F
KENOSHA        SUNNY     68  62  81 CALM      30.01S
FOND DU LAC    MOSUNNY   70  61  73 CALM      30.00R
SHEBOYGAN      SUNNY     64  63  96 CALM      30.01R
WEST BEND        N/A     61  61 100 CALM      30.02R
JUNEAU         SUNNY     65  60  82 SE5       30.02S
$$

LSZ147-162-251400-
LAKE SUPERIOR

STATION/POSITION TIME  TEMP    WIND        PRES    WAVE
                       AIR SEA DIR/SP/G            HT/PER
                 (UTC) (F)     (DEG/KT/KT) (MB)    (FT/S)
W MID LAKE BUOY  1150   60 56  240/ 10/ 12 1012.3R   1
DEVILS ISLAND    1200   63     250/ 12/ 14 1013.6R
PORT WING        1240   63     260/  8/ 11 1015.2R
SAXON HARBOR     1240   68     210/  1/  4 1013.9R
$$

LMZ867-665-643>646-251400-
LAKE MICHIGAN

STATION/POSITION TIME  TEMP    WIND        PRES    WAVE
                       AIR SEA DIR/SP/G            HT/PER
                 (UTC) (F)     (DEG/KT/KT) (MB)    (FT/S)
S GREEN BAY BUOY 1230   71 69  190/  8/ 10 1015.3R
N MID LAKE BUOY  1150   69 67  180/ 12/ 14 1015.8R   1/ 3
NORTHPORT PIER   1240   71     160/  5/ 10 1015.2S
KEWAUNEE LAKESHO 1248   65     180/  3/  3 1015.1R
SHEBOYGAN LAKESH 1200   68     210/  4/  4 1015.5R
PORT WASHINGTON  1230   66     260/  2/  3 1016.9R
ATWATER BUOY     1239   68 64  140/  4/  4 1016.2R
MILWAUKEE LAKESH 1250   71     150/  2/  2   N/A
S MID LAKE BUOY  1150   72 71  150/  8/ 10 1016.4R   1
KENOSHA   LAKESH 1200   69     180/  5/  7 1015.9
$$

TC  - TEMPERATURE IN CELSIUS
VSB - VISIBILITY IN STATUTE MILES
WCI - WIND CHILL INDEX
HX  - HEAT INDEX





USA.gov is the U.S. government's official web portal to all federal, state and local government web resources and services.